Location: Kutna Hora
(49.9500°N, 15.2670°E)
Time: 20:34:43
(UTC+01:00)

ISS - Visible Passes

Search period start: 24 March 2019 00:00
Search period end: 03 April 2019 01:00
Orbit: 408 x 411 km, 51.6° (Epoch: 24 March)

Date Brightness Start Highest point End Pass type
(mag) Time Alt. Az. Time Alt. Az. Time Alt. Az.
24 Mar -3.5 19:32:25 10° SW 19:35:35 46° SSE 19:37:09 25° E visible
24 Mar -1.3 21:08:50 10° W 21:09:56 19° W 21:09:56 19° W visible
25 Mar -3.9 20:18:08 10° WSW 20:21:27 81° NNW 20:21:38 76° NE visible
26 Mar -3.9 19:27:28 10° WSW 19:30:46 79° SSE 19:33:13 17° ENE visible
26 Mar -1.8 21:04:11 10° W 21:05:59 29° WNW 21:05:59 29° WNW visible
27 Mar -3.5 20:13:27 10° W 20:16:44 64° N 20:17:27 47° NE visible
27 Mar -0.4 21:50:10 10° WNW 21:50:13 10° WNW 21:50:13 10° WNW visible
28 Mar -3.6 19:22:42 10° W 19:26:00 73° N 19:28:51 13° ENE visible
28 Mar -2.3 20:59:27 10° WNW 21:01:37 37° WNW 21:01:37 37° WNW visible
29 Mar -3.5 20:08:43 10° W 20:12:01 63° N 20:12:58 40° ENE visible
29 Mar -0.6 21:45:22 10° WNW 21:45:43 12° WNW 21:45:43 12° WNW visible
30 Mar -3.5 19:17:57 10° W 19:21:14 62° N 19:24:16 12° E visible
30 Mar -2.7 20:54:39 10° WNW 20:57:01 44° WNW 20:57:01 44° WNW visible
31 Mar -3.8 21:03:54 10° WNW 21:07:13 76° NNE 21:08:18 39° E visible
31 Mar -0.8 22:40:37 10° W 22:41:04 13° W 22:41:04 13° W visible
01 Apr -3.6 20:13:08 10° WNW 20:16:26 66° N 20:19:35 11° E visible
01 Apr -2.8 21:49:47 10° WNW 21:52:20 42° WSW 21:52:20 42° WSW visible
02 Apr -3.8 20:59:00 10° WNW 21:02:19 74° SSW 21:03:36 34° ESE visible
02 Apr -0.7 22:36:08 10° W 22:36:21 11° W 22:36:21 11° W visible
